Weather History for Middletown, OH

Change the Weather History Date:

Monday, September 17, 2012

  Actual Average (KDAY) Record (KDAY)
Temperature  
Mean Temperature 64 °F 65 °F  
Max Temperature 75 °F 76 °F 92 °F (1931)
Min Temperature 54 °F 54 °F 39 °F (1959)
Degree Days  
Heating Degree Days 0 3  
Month to date heating degree days 26  
Since 1 July heating degree days 28  
Cooling Degree Days 0 3  
Month to date cooling degree days 74  
Year to date cooling degree days 856  
Growing Degree Days 14 (Base 50)    
Moisture  
Dew Point 62 °F    
Average Humidity 90    
Maximum Humidity 100    
Minimum Humidity 73    
Precipitation  
Precipitation 0.00 in 0.11 in 0.74 in (1933)
Month to date precipitation 1.90  
Year to date precipitation 30.21  
Snow  
Snow 0.00 in 0.00 in - ()
Month to date snowfall 0.0  
Since 1 July snowfall 0.0  
Since 1 September snowfall 0.0  
Snow Depth -    
Sea Level Pressure  
Sea Level Pressure 29.95 in    
Wind  
Wind Speed 2 mph (SSW)    
Max Wind Speed 14 mph    
Max Gust Speed -    
Visibility 10 miles    
Events      
T = Trace of Precipitation, MM = Missing Value Source: NWS Daily Summary

Daily Weather History Graph

Daily Weather History Graph

Search for Another Location

Airport:

Trip Planner

Search our weather history database for the weather conditions in past years. The results will help you decide how hot, cold, wet, or windy it might be!

Date:

Astronomy

Sep. 17, 2012 Rise Set
Actual Time 7:21 AM EDT 7:42 PM EDT
Civil Twilight 6:54 AM EDT 8:08 PM EDT
Nautical Twilight 6:22 AM EDT 8:40 PM EDT
Astronomical Twilight 5:50 AM EDT 9:12 PM EDT
Moon 9:08 AM EDT (9/17) 8:24 PM EDT (9/17)
Length of Visible Light 13h 14m
Length of Day
12h 21m
Waxing Crescent, 3% of the Moon is Illuminated
Sep 17
Waxing Crescent
Sep 22
First Quarter
Sep 29
Full
Oct 8
Last Quarter
Oct 15
New

Hourly Weather History & Observations

Time (EDT) Temp. Dew Point Humidity Pressure Visibility Wind Dir Wind Speed Gust Speed Precip Events Conditions
12:15 AM 55.4 °F 54.5 °F 97% 30.06 in 10.0 mi Calm Calm - N/A   Clear
12:35 AM 55.4 °F 54.7 °F 97% 30.06 in 10.0 mi Calm Calm - N/A   Clear
12:55 AM 55.4 °F 55.0 °F 99% 30.05 in 10.0 mi Calm Calm - N/A   Clear
1:15 AM 54.7 °F 54.5 °F 99% 30.05 in 10.0 mi Calm Calm - N/A   Clear
1:35 AM 54.3 °F 53.8 °F 98% 30.05 in 10.0 mi Calm Calm - N/A   Scattered Clouds
1:55 AM 55.4 °F 55.4 °F 100% 30.05 in 10.0 mi Calm Calm - N/A   Mostly Cloudy
2:15 AM 55.4 °F 55.2 °F 99% 30.05 in 10.0 mi Calm Calm - N/A   Mostly Cloudy
2:35 AM 55.4 °F 55.4 °F 100% 30.05 in 10.0 mi Calm Calm - N/A   Scattered Clouds
2:55 AM 54.0 °F 54.0 °F 100% 30.04 in 10.0 mi Calm Calm - N/A   Mostly Cloudy
3:15 AM 55.4 °F 55.4 °F 100% 30.04 in 10.0 mi Calm Calm - N/A   Overcast
3:35 AM 55.4 °F 55.4 °F 100% 30.03 in 10.0 mi Calm Calm - N/A   Overcast
3:55 AM 55.4 °F 55.2 °F 99% 30.03 in 10.0 mi NNE 3.5 mph - N/A   Mostly Cloudy
4:15 AM 55.4 °F 55.0 °F 99% 30.03 in 10.0 mi Calm Calm - N/A   Scattered Clouds
4:35 AM 55.4 °F 54.9 °F 98% 30.02 in 10.0 mi Calm Calm - N/A   Mostly Cloudy
4:55 AM 55.4 °F 55.0 °F 99% 30.02 in 10.0 mi Calm Calm - N/A   Overcast
5:15 AM 55.4 °F 55.4 °F 100% 30.02 in 10.0 mi Calm Calm - N/A   Overcast
5:55 AM 57.7 °F 56.7 °F 96% 30.01 in 10.0 mi Calm Calm - N/A   Overcast
6:15 AM 57.7 °F 56.3 °F 95% 30.00 in 10.0 mi Calm Calm - N/A   Overcast
6:35 AM 57.7 °F 56.3 °F 95% 30.00 in 10.0 mi Calm Calm - N/A   Overcast
6:55 AM 57.7 °F 56.5 °F 96% 30.01 in 10.0 mi Calm Calm - N/A   Overcast
7:15 AM 57.7 °F 55.4 °F 92% 30.01 in 10.0 mi Calm Calm - N/A   Overcast
7:35 AM 57.7 °F 57.2 °F 98% 30.02 in 10.0 mi Calm Calm - N/A   Mostly Cloudy
8:15 AM 57.7 °F 56.7 °F 96% 30.01 in 10.0 mi ENE 3.5 mph - N/A   Scattered Clouds
8:35 AM 59.0 °F 57.4 °F 94% 30.01 in 10.0 mi Calm Calm - N/A   Clear
9:15 AM 62.6 °F 57.2 °F 82% 30.01 in 10.0 mi Calm Calm - N/A   Scattered Clouds
9:35 AM 62.6 °F 57.4 °F 83% 30.01 in 10.0 mi Calm Calm - N/A   Clear
9:55 AM 63.1 °F 57.9 °F 83% 30.02 in 10.0 mi Calm Calm - N/A   Clear
10:15 AM 66.6 °F 61.5 °F 84% 30.01 in 10.0 mi Calm Calm - N/A   Clear
10:35 AM 67.6 °F 62.1 °F 82% 30.00 in 10.0 mi Calm Calm - N/A   Clear
10:55 AM 67.6 °F 61.7 °F 81% 30.00 in 10.0 mi Calm Calm - N/A   Clear
11:15 AM 68.4 °F 62.1 °F 80% 29.99 in 10.0 mi Calm Calm - N/A   Clear
11:35 AM 69.4 °F 62.6 °F 79% 29.98 in 10.0 mi Calm Calm - N/A   Clear
11:55 AM 72.7 °F 65.5 °F 78% 29.98 in 10.0 mi Calm Calm - N/A   Clear
12:15 PM 72.7 °F 65.3 °F 78% 29.98 in 10.0 mi Calm Calm - N/A   Clear
12:35 PM 72.7 °F 65.1 °F 77% 29.97 in 10.0 mi SW 6.9 mph - N/A   Mostly Cloudy
12:55 PM 72.7 °F 64.9 °F 77% 29.96 in 10.0 mi SE 4.6 mph - N/A   Scattered Clouds
1:15 PM 73.2 °F 64.9 °F 75% 29.95 in 10.0 mi South 4.6 mph - N/A   Mostly Cloudy
1:35 PM 75.2 °F 66.2 °F 73% 29.95 in 10.0 mi South 6.9 mph - N/A   Mostly Cloudy
1:55 PM 72.7 °F 64.4 °F 75% 29.94 in 10.0 mi SSW 10.4 mph - N/A   Overcast
2:15 PM 74.8 °F 66.4 °F 75% 29.94 in 10.0 mi SSW 8.1 mph - N/A   Mostly Cloudy
2:35 PM 72.7 °F 64.6 °F 76% 29.93 in 10.0 mi SSW 9.2 mph - N/A   Overcast
2:55 PM 73.9 °F 65.5 °F 75% 29.92 in 10.0 mi SSW 11.5 mph - N/A   Overcast
3:15 PM 74.7 °F 66.7 °F 76% 29.91 in 10.0 mi SSW 6.9 mph - N/A   Scattered Clouds
3:35 PM 73.0 °F 65.3 °F 77% 29.91 in 10.0 mi SSW 5.8 mph - N/A   Mostly Cloudy
3:55 PM 72.7 °F 64.9 °F 77% 29.90 in 10.0 mi South 9.2 mph - N/A   Overcast
4:15 PM 73.2 °F 64.9 °F 75% 29.89 in 10.0 mi South 8.1 mph - N/A   Mostly Cloudy
4:35 PM 72.7 °F 64.8 °F 76% 29.89 in 10.0 mi SSW 13.8 mph - N/A   Mostly Cloudy
4:55 PM 72.7 °F 66.2 °F 80% 29.88 in 10.0 mi SSW 11.5 mph - N/A   Mostly Cloudy
5:15 PM 72.7 °F 67.3 °F 83% 29.88 in 10.0 mi SSW 8.1 mph - N/A   Overcast
5:35 PM 72.7 °F 68.9 °F 88% 29.87 in 10.0 mi SSW 8.1 mph - N/A   Overcast
5:55 PM 72.7 °F 68.5 °F 87% 29.86 in 10.0 mi South 11.5 mph - N/A   Overcast
6:15 PM 70.5 °F 67.5 °F 90% 29.86 in 10.0 mi SW 9.2 mph - N/A   Overcast
6:55 PM 69.4 °F 66.9 °F 92% 29.85 in 10.0 mi SW 11.5 mph - N/A   Overcast
7:15 PM 68.9 °F 66.6 °F 92% 29.85 in 10.0 mi SSW 6.9 mph - N/A   Overcast
7:35 PM 68.0 °F 65.8 °F 93% 29.85 in 10.0 mi SSW 9.2 mph - N/A   Overcast
7:55 PM 67.6 °F 65.8 °F 94% 29.84 in 10.0 mi SSW 6.9 mph - N/A   Overcast
8:15 PM 67.6 °F 66.2 °F 95% 29.83 in 10.0 mi South 9.2 mph - N/A   Overcast
8:35 PM 67.6 °F 66.6 °F 96% 29.83 in 10.0 mi South 6.9 mph - N/A   Overcast
8:55 PM 67.6 °F 66.7 °F 97% 29.83 in 10.0 mi South 8.1 mph - N/A   Overcast
9:15 PM 67.6 °F 66.7 °F 97% 29.83 in 10.0 mi SSW 6.9 mph - N/A   Overcast
9:35 PM 67.6 °F 67.1 °F 98% 29.83 in 10.0 mi SSW 4.6 mph - N/A   Mostly Cloudy
9:55 PM 67.6 °F 67.1 °F 98% 29.83 in 10.0 mi South 5.8 mph - N/A   Mostly Cloudy
10:15 PM 67.6 °F 67.1 °F 98% 29.82 in 10.0 mi SSW 5.8 mph - N/A   Mostly Cloudy
10:35 PM 67.6 °F 66.7 °F 97% 29.82 in 10.0 mi South 4.6 mph - N/A   Overcast
10:55 PM 67.6 °F 66.9 °F 98% 29.82 in 10.0 mi South 5.8 mph - N/A   Overcast
11:15 PM 67.6 °F 66.9 °F 98% 29.81 in 10.0 mi South 5.8 mph - N/A   Overcast
11:35 PM 67.6 °F 66.9 °F 98% 29.81 in 10.0 mi SSE 4.6 mph - N/A   Overcast
11:55 PM 67.6 °F 67.3 °F 99% 29.80 in 10.0 mi SSE 3.5 mph - N/A   Overcast